Main page
METAR-TAF:

METAR-TAF

Airports :

Ramsar International Airport

Ramsar, Iran

latitude: 36-54N, longitude: 050-40E, elevation: -23 m

Current weather observation

The report was made 1 hour and 50 minutes ago, at 21:00 UTC
Wind 2 kt from the South/Southwest
Temperature 11°C
Humidity 94%
Pressure 1013 hPa
Visibility 10 km or more
Few clouds at a height of 10000 ft
Scattered clouds at a height of 20000 ft

METAR: OINR 202100Z 21002KT 9999 FEW100 SCT200 11/10 Q1013

Time: 02:20 (22:50 UTC)


TAF: missing

Weather observations and forecasts of more than 4000 airports (METAR and TAF reports).

The available stations are represented by yellow and red dots on the map.

Hover mouse over dot to see the name of the station.

Then click to see weather observations and forecasts.

To change the map : click on the green buttons with a black cross to zoom in, on the green button with a dash to zoom out, or on the green arrows for adjacent maps.


METAR-TAF: